Regional Weather Roundup
Issued by NWS

Home | Current Version | Previous Version | Graphics & Text | Print | Product List | Glossary On
Versions: 1 2 3 4 5 6 7 8 9 10 11 12 13 14 15 16 17 18 19 20 21 22 23 24 25 26 27 28 29 30 31 32 33 34 35 36 37 38 39 40 41 42 43 44 45 46 47 48 49 50
000
ASUS43 KMPX 231510
RWRMN
WEATHER ROUNDUP FOR MINNESOTA
NATIONAL WEATHER SERVICE TWIN CITIES/CHANHASSEN MN
900 AM CST SUN NOV 23 2014


NOTE: "FAIR" INDICATES FEW OR NO CLOUDS BELOW 12,000 FEET WITH NO
SIGNIFICANT WEATHER AND/OR OBSTRUCTIONS TO VISIBILITY. N/A MEANS
CURRENT SKY AND/OR WEATHER CONDITIONS ARE NOT AVAILABLE.

MNZ060>063-068>070-231600-
   Twin Cities Metro

CITY           SKY/WX    TMP DP  RH WIND       PRES   REMARKS
TWIN CITIES    CLOUDY    49  48  97 S3        29.46S FOG
ST PAUL        CLOUDY    46  46 100 S7        29.47S FOG
CRYSTAL        FOG       42  41  96 CALM      29.45R VSB<1/4
BLAINE         FOG       46  46 100 CALM      29.45S VSB 1/16
LAKEVILLE      CLOUDY    48  46  93 S8        29.46S FOG
EDEN PRAIRIE   CLOUDY    50  49  96 SW6       29.45R FOG
SOUTH ST PAUL  CLOUDY    48  47  96 SE6       29.46S FOG
LAKE ELMO      FOG       46  46 100 S8        29.47F VSB 1
$$
MNZ001>005-007-008-013>017-022>024-027-028-231600-
   Northwest Minnesota

CITY           SKY/WX    TMP DP  RH WIND       PRES   REMARKS
BEMIDJI        CLOUDY    33  33 100 S3        29.40R FOG
HALLOCK        MOCLDY    34  30  86 CALM      29.36R FOG
ROSEAU         CLOUDY    34  30  86 S6        29.37S FOG     WCI  29
WARROAD        CLOUDY    34  30  86 CALM      29.36F FOG
THIEF RVR FALL MOCLDY    32  32 100 S6        29.38S WCI  26
CROOKSTON      CLOUDY    34  32  93 S6        29.41R FOG     WCI  29
FOSSTON        MOCLDY    30  30 100 S7        29.40R FOG     WCI  23
DETROIT LAKES  MOSUNNY   34  32  93 CALM      29.42S FOG
MOORHEAD       MOCLDY    36  36 100 S7        29.44R
PARK RAPIDS    CLOUDY    33  32  96 CALM      29.40F FOG
MAHNOMEN       CLOUDY    32  32  98 S8        29.41R FOG     WCI  25
$$
MNZ006-009>011-018-025>026-231600-
   North Central Minnesota

CITY           SKY/WX    TMP DP  RH WIND       PRES   REMARKS
BAUDETTE       FOG       33  32  96 SE6       29.38F VSB 3/4 WCI  28
FLAG ISLAND    CLOUDY    34  30  86 S10       29.37S FOG     WCI  26
INTL FALLS     CLOUDY    34  32  92 CALM      29.42R FOG
WASKISH        FOG       34  34 100 CALM      29.39S VSB 1
BIG FORK       CLOUDY    34  34 100 CALM      29.42R FOG
LONGVILLE      FOG       34  34 100 SE3       29.41F VSB 1/2
GRAND RAPIDS   CLOUDY    36  32  87 W3        29.42R VSB 1/2
CRANE LAKE     FOG       32  30  93 CALM      29.44R VSB 3/4
ORR            FOG       34  32  93 CALM      29.39R VSB 1
COOK           FOG       34  34 100 CALM      29.41R VSB 1/4
WALKER         PTSUNNY   32  32  99 CALM      29.40R FOG
$$
MNZ012-019>021-037-231600-
   Northeast Minnesota

CITY           SKY/WX    TMP DP  RH WIND       PRES   REMARKS
DULUTH         FOG       37  36  96 S5        29.42R VSB 1/8
ELY            FOG       36  34  93 CALM      29.41R VSB 1
HIBBING        FOG       37  35  92 CALM      29.41R VSB 1/4
EVELETH        FOG       36  36 100 S3        29.42R VSB 1/4
DULUTH HARBOR  FOG       37  37 100 CALM      29.45S VSB 1/4
TWO HARBORS    HAZE      39  34  81 CALM      29.40F VSB<1/4
SILVER BAY     FOG       37  36  93 CALM      29.42R VSB 1/2
GRAND MARAIS     N/A     39  37  92 NE5       29.45R
G MARAIS ARPRT FOG       34  30  86 CALM      29.43R VSB<1/4
$$
MNZ029>031-032-039>041-046>048-054>057-064-231600-
   West Central Minnesota

CITY           SKY/WX    TMP DP  RH WIND       PRES   REMARKS
FERGUS FALLS   PTSUNNY   34  32  93 SW3       29.47R
WHEATON        CLOUDY    36  34  93 W5        29.48S
MORRIS           N/A     36  34  93 S3        29.46R
ALEXANDRIA     CLOUDY    36  32  85 W8        29.45R
ELBOW LAKE       N/A     34  32  94 W6        29.45R WCI  29
WADENA         CLOUDY    34  32  93 W6        29.42R FOG     WCI  29
GLENWOOD       CLOUDY    36  32  87 SW8       29.47R
APPLETON       DRIZZLE   37  34  87 CALM      29.47F
BENSON         MIX PCPN  36  32  87 W6        29.48R
ORTONVILLE     CLOUDY    37  34  87 CALM      29.47R
MADISON        DRIZZLE   41  37  87 W3        29.48S
WILLMAR        FAIR      37  34  87 W6        29.46S
$$
MNZ033>034-036-042>043-049>051-058-059-231600-
   Central Minnesota

CITY           SKY/WX    TMP DP  RH WIND       PRES   REMARKS
ST CLOUD       CLOUDY    39  36  89 CALM      29.44F FOG
SAUK CENTRE    CLOUDY    35  32  91 SW6       29.46R WCI  29
PAYNESVILLE    CLOUDY    33  32  96 CALM      29.44F
AITKIN         CLOUDY    39  34  81 CALM      29.42R HAZE
PINE RIVER     FOG       34  34 100 E5        29.45F VSB 1   WCI  30
BRAINERD       FOG       34  34 100 SE3       29.42F VSB 1
STAPLES        CLOUDY    34  34 100 CALM      29.43R FOG
LONG PRAIRIE   CLOUDY    34  32  93 SW5       29.44R WCI  30
LITTLE FALLS     N/A     34  34 100 SE6       29.45R FOG     WCI  29
LITCHFIELD     CLOUDY    39  37  93 W3        29.45F
BUFFALO        FOG       38  37  96 CALM      29.46R VSB<1/4
MAPLE LAKE     FOG       39  39 100 CALM      29.46S VSB 1/4
$$
MNZ037-044-045-052-053-231600-
   East Central Minnesota

CITY           SKY/WX    TMP DP  RH WIND       PRES   REMARKS
PRINCETON      CLOUDY    39  39 100 CALM      29.45S FOG
MORA           FOG       36  36 100 CALM      29.46S VSB 1/4
CAMBRIDGE      HAZE      45  37  76 CALM      29.44R VSB<1/4
RUSH CITY      FOG       40  40  98 CALM      29.46R VSB 1/2
MOOSE LAKE     FOG       37  37 100 CALM      29.42R VSB 1/2
HINCKLEY       FOG       37  37 100 CALM      29.45R VSB<1/4
CLOQUET        FOG       37  36  93 SW3       29.43R VSB<1/4
MCGREGOR       CLOUDY    37  36  93 SW6       29.45R
$$
MNZ071>073-080-081-089-090-097-098-231600-
   Southwest Minnesota

CITY           SKY/WX    TMP DP  RH WIND       PRES   REMARKS
MONTEVIDEO     CLOUDY    37  36  93 NW3       29.49R
GRANITE FALLS  CLOUDY    37  34  89 W10       29.49R FOG
CANBY          CLOUDY    39  35  87 W8        29.49S
MARSHALL       CLOUDY    41  34  75 NW15      29.47S
REDWOOD FALLS  RAIN      41  36  82 NW12      29.44S
OLIVIA         DRIZZLE   36  34  93 NW6       29.44F
PIPESTONE      DRIZZLE   37  36  93 NW10      29.48R
WINDOM           N/A     46  45  93 CALM      29.46R
WORTHINGTON    CLOUDY    43  37  81 NW3       29.47R
JACKSON        CLOUDY    46  46 100 SW3       29.47R FOG
TRACY          DRIZZLE   42  38  85 NW14      29.46R
SLAYTON        RAIN      40  37  91 NW18      29.46S
$$
MNZ065>067-074>077-082>085-091>093-231600-
   South Central Minnesota

CITY           SKY/WX    TMP DP  RH WIND       PRES   REMARKS
MANKATO        CLOUDY    50  46  87 S5        29.46S
NEW ULM          N/A     46  46 100 SW3       29.46R FOG
ST JAMES       CLOUDY    48  46  93 S3        29.47S FOG
FAIRMONT       CLOUDY    50  46  87 S10       29.46S
GLENCOE        CLOUDY    47  47 100 CALM      29.44S FOG
FARIBAULT      DRZL/FOG  48  48 100 S6        29.47F VSB 1
OWATONNA       LGT RAIN  50  48  93 S9        29.48S
WASECA         RAIN      48  45  87 S9        29.48F
ALBERT LEA     CLOUDY    52  50  93 S10       29.48S FOG
$$
MNZ078>079-086>088-094>096-231600-
   Southeast Minnesota

CITY           SKY/WX    TMP DP  RH WIND       PRES   REMARKS
ROCHESTER      FOG       49  48  97 S15       29.51F VSB 1/2
RED WING         N/A     52  48  87 S8        29.48S
STANTON        CLOUDY    50  48  92 S7        29.45F FOG
DODGE CENTER   FOG       50  48  93 S14       29.49S VSB 3/4
WINONA         CLOUDY    54  50  87 S3        29.52F
AUSTIN         CLOUDY    48  48 100 S14       29.49F FOG
PRESTON        FOG       48  47  97 S15       29.52F VSB 1/2
$$
ABBREVIATIONS USED IN REMARKS
   TC - TEMPERATURES IN CELSIUS
  WCI - WIND CHILL INDEX
   HX - HEAT INDEX
  VSB - VISIBILITY
$$



USA.gov is the U.S. government's official web portal to all federal, state and local government web resources and services.